STARLINK-32749, 62508

Orbit data source: Space-Track

STARLINK-32749, 62508 is a payload satellite owned by SpaceX/Seattle (US) in LEO that was launched on Mon, 06 Jan 2025 UTC via an FALCON 9 launch vehicle from the Air Force Eastern Test Range (AFETR). Payload-class satellites include a variety of spacecraft equipped with specific instruments for various scientific and technological missions. These include communications satellites like Starlink; space stations such as the ISS; scientific satellites like the Hubble; Earth observation satellites from companies like Planet Labs, Umbra, and HawkEye 360; GPS; miniature CubeSats for education and research; and military/defense satellites.

Loading next visibility...
Identifier
62508, 2025-003X
Orbit
LEO
Country
Flag of USUS
Related business
Manufacturer
SpaceX/Seattle
Mission
Operational Commercial Communications
Bus & Motor
STARLINK V2M, Unknown motor
Mass
730 kg wet, ~700 kg dry
Launch date (UTC)
2025-01-06 (1 year ago)
Launch vehicle
FALCON 9
Launch site
Air Force Eastern Test Range (AFETR)
Object type
Payload
Rocket body
Debris
Shape & HBR
Box + 2 Pan, 17.7 m
Radar Cross Section
33.884 m², Large (>1 m²)

Expand to show TLE details & history
Last TLE update: 10 hours ago

TLE from 10 hours ago
0 STARLINK-32749
1 62508U 25003X   26171.41232884  .00017766  00000-0  65387-3 0  9999
2 62508  43.0003  68.6740 0001083 280.0775  79.9954 15.27564683 82263
Epoch: 2026-06-20T09:53Z
TLE epoch observation values (Epoch: 2026-06-20T09:53:45.211Z)
Latitude
-0.00006°
Longitude
11.60823°
Altitude
482.741 km
Speed
7.626 km/s
True Right ascension
04h 34m 41s
True Declination
0° 00' 00"
Sunlit
Object was in daylight at epoch
Visualization orbit readout
Latitude
Unknown
Longitude
Unknown
Altitude
Unknown
Speed
Unknown
Apparent Right ascension
Unknown
Apparent Declination
Unknown
Sunlit
N/A
Visualization observer readout
Local Sidereal Time
07:13:36
Azimuth
Unknown
Elevation
Unknown
Doppler factor
Unknown
Orbital elements
Apogee altitude
485.783 km
Perigee altitude
484.297 km
Semi-major axis
6,863.177 km
Eccentricity
0.00011
Inclination
43.0003°
RAAN
68.674°
Arg. of periapsis
280.0775°
True anomaly
80.00762°
Mean anomaly
79.9954°
Eccentric anomaly
80.00151°
Mean motion
3.81729 °/min
Orbital period
94.31 mins
BSTAR
0.00065387
Loading maneuver chart data...
Computing Atmospheric mass density...
Loading historical data...
Loading historical data...
Loading historical data...
Loading historical data...
Loading historical data...
Loading historical data...
Loading historical data...

Documentation

Showing up to 5 results
|